User: anonymous   Login
Location: Prague
(50.0830°N, 14.4670°E)
Time: 12:05:07
(UTC+01:00)
Language:

AAUSAT CUBESAT 2 - Orbit

View from above orbital plane
View from above orbital plane
View from above satellite
View from above satellite

Ground track
Ground track

The orbit data is extracted from the following two-line orbital elements,

1 32788U 08021F   21334.86331116  .00001728  00000-0  15882-3 0  9996
2 32788  97.5180 322.6910 0013294  73.1074 287.1604 14.95982428738732
Epoch (UTC): 30 November 2021 20:43:10
Eccentricity: 0.0013294
inclination: 97.5180°
perigee height: 570 km
apogee height: 588 km
right ascension of ascending node: 322.6910°
argument of perigee: 73.1074°
revolutions per day: 14.95982428
mean anomaly at epoch: 287.1604°
orbit number at epoch: 73873

The dashed part of the orbit path shows where the satellite is in the earth's shadow,  

DLR